Location: Newark
(38.8667°N, 6.9667°W)
Time: 22:13:32
(UTC+00:00)

Envisat - Visible Passes

Search period start: 16 October 2019 00:00
Search period end: 26 October 2019 00:00
Orbit: 764 x 766 km, 98.1° (Epoch: 16 October)

Date Brightness Start Highest point End Pass type
(mag) Time Alt. Az. Time Alt. Az. Time Alt. Az.
16 Oct 3.0 18:18:15 10° SSE 18:23:15 62° ENE 18:28:17 10° N visible
16 Oct 6.1 20:00:04 10° WSW 20:02:40 14° W 20:05:17 10° WNW visible
17 Oct 4.8 19:21:06 10° SSW 19:25:36 32° W 19:30:08 10° NNW visible
18 Oct 3.2 18:43:40 10° S 18:48:43 74° WSW 18:53:49 10° NNW visible
19 Oct 3.2 18:07:11 10° SE 18:12:02 49° ENE 18:16:56 10° N visible
19 Oct 5.7 19:47:53 10° SW 19:51:18 18° W 19:54:44 10° NW visible
20 Oct 4.4 19:09:31 10° SSW 19:14:17 41° W 19:19:05 10° NNW visible
21 Oct 3.0 18:32:23 10° SSE 18:37:27 87° E 18:42:35 10° NNW visible
22 Oct 5.4 19:35:58 10° SW 19:39:57 23° W 19:43:56 10° NW visible
23 Oct 6.3 06:07:43 10° ENE 06:10:26 14° E 06:13:09 10° ESE visible
23 Oct 3.8 18:58:03 10° S 19:02:58 52° W 19:07:57 10° NNW visible
24 Oct 2.9 18:21:12 10° SSE 18:26:13 68° ENE 18:31:17 10° N visible
24 Oct 6.1 20:03:33 10° WSW 20:05:42 13° W 20:07:51 10° WNW visible
25 Oct 5.0 19:24:13 10° SSW 19:28:36 29° W 19:33:01 10° NW visible
